TOURFACTS.DK  
Stats and Facts from Tour de France.

Tour de France 2018 starts in 316 days
  Riders   Stages   Teams   Summits   Yearly  


 
Search by year

 2017 - St. 21:  14824 starters.
  5131 different riders.
  634 teams.
  2232 stages.
  454 restdays.
  439589.60 km.
  5653 abandonnees.


Top 3
Christopher Froome86:20:55
Rigoberto Uran86:21:49
Romain Bardet86:23:15
Warren Barguil169 pt.
Primoz Roglic80 pt.
Thomas De Gendt64 pt.
Michael Matthews359 pt.
André Greipel234 pt.
Edvald Boasson Hagen220 pt.
Simon Yates86:27:09
Louis Meintjes86:29:15
Emanuel Buchmann86:54:16
Facts from Tour de France 1938
  |   Stages.  |   Stage winners.  |   Days in yellow  |   Average speed.  |   Route.  |   Teams.  |   All riders.  |   Rookies.  |   Withdrawls.  |  

  |   GC.  |   Polka  |   Green  |   White  |   Summits. (In tour)  |   Summits. (Points)  |   Miscellaneous.  |  

Stage 21 on 31 - 07 - 1938
         Owning:    Gino Bartali    
Pick a stage:  1 2 3 4a 4b 4c 5 6a 6b 7 8 9 10a 10b 10c 11 12 13 14 15 16 17a 17b 18 19 20a 20b 20c 21
  LilleParis | Dist: 279.00 km.

Average speed for all riders in stage:  30,832 km./hr.
    Place:Name:Team:Time:Km/h:
FRAAntonin MagneFRAFrance08:54:50  +  00:00:00=31,299 
FRAAndré LeducqFRACadets08:54:50  +  00:00:00=31,299 
SUIRaymond LouviotFRACadets08:59:50  +  00:05:00=31,010 
4 FRAFabien GalateauFRACadets08:59:50  +  00:05:00=31,010 
5 FRAPierre JaminetFRAFrance08:59:50  +  00:05:00=31,010 
6 FRAYvan MarieFRACadets08:59:50  +  00:05:00=31,010 
7 ITAMario ViciniITAItaly09:00:05  +  00:05:15=30,995 
8 BELMarcel KintBELBelgium09:00:05  +  00:05:15=30,995 
9 FRARobert OubronFRACadets09:00:05  +  00:05:15=30,995 
10 ESPMariano CañardoESPSpain09:00:05  +  00:05:15=30,995 
11 FRARobert TanneveauFRACadets09:00:05  +  00:05:15=30,995 
12 ESPRafael RamosESPSpain09:00:05  +  00:05:15=30,995 
13 SUIBruno CariniFRACadets09:00:05  +  00:05:15=30,995 
14 ESPJulián BerrenderoESPSpain09:01:26  +  00:06:36=30,918 
15 ITAGlauco ServadeiITAItaly09:01:26  +  00:06:36=30,918 
16 GERJosef ArentsDEUGermany09:01:26  +  00:06:36=30,918 
17 GEROtto WeckerlingDEUGermany09:01:26  +  00:06:36=30,918 
18 BELJules LowieBELBelgium09:01:26  +  00:06:36=30,918 
19 ITAEnrico MolloITAItaly09:01:26  +  00:06:36=30,918 
20 SUIPaul EgliCHESwitzerland09:01:26  +  00:06:36=30,918 
21 ITADante GianelloFRABluets09:01:26  +  00:06:36=30,918 
22 FRAMathias ClemensLUXLuxembourg09:01:26  +  00:06:36=30,918 
23 FRAAlbert BourlonFRABluets09:01:45  +  00:06:55=30,900 
24 ITAAldo BiniITAItaly09:04:27  +  00:09:37=30,747 
25 BELFélicien VervaeckeBELBelgium09:04:27  +  00:09:37=30,747 
26 LUXJean MajerusLUXLuxembourg09:04:27  +  00:09:37=30,747 
27 LUXFrançois NeuensLUXLuxembourg09:04:27  +  00:09:37=30,747 
28 FRAPierre GallienFRAFrance09:04:27  +  00:09:37=30,747 
29 FRAVictor CossonFRAFrance09:04:27  +  00:09:37=30,747 
30 BELAlbertin DisseauxBELBelgium09:04:27  +  00:09:37=30,747 
31 ITAGino BartaliITAItaly09:04:27  +  00:09:37=30,747 
32 FRAJean-Marie GoasmatFRAFrance09:04:27  +  00:09:37=30,747 
33 ITAGiordano CotturITAItaly09:04:27  +  00:09:37=30,747 
34 ITAGiuseppe MartanoITAItaly09:04:27  +  00:09:37=30,747 
35 ITALuigi IntrozziITAItaly09:04:27  +  00:09:37=30,747 
36 BELSylvère MaesBELBelgium09:04:27  +  00:09:37=30,747 
37 BELEdward VissersBELBelgium09:04:27  +  00:09:37=30,747 
38 BELRene WalschotBELBelgium09:04:27  +  00:09:37=30,747 
39 BELConstant LauwersBELBelgium09:04:27  +  00:09:37=30,747 
40 ITANello TroggiITAItaly09:04:27  +  00:09:37=30,747 
41 GERHerbert HauswaldDEUGermany09:04:27  +  00:09:37=30,747 
42 GERReinhold WendelDEUGermany09:04:27  +  00:09:37=30,747 
43 FRAJean FréchautFRAFrance09:04:27  +  00:09:37=30,747 
44 NEDTheo MiddelkampNLDHolland09:04:27  +  00:09:37=30,747 
45 LUXArsène MerschLUXLuxembourg09:04:27  +  00:09:37=30,747 
46 FRARaymond PassatFRACadets09:04:27  +  00:09:37=30,747 
47 FRALucien Le GuevelFRABluets09:04:27  +  00:09:37=30,747 
48 ITAVasco BergamaschiITAItaly09:04:27  +  00:09:37=30,747 
49 FRAJean FontenayFRACadets09:04:49  +  00:09:59=30,726 
50 NEDAntoon Van SchendelNLDHolland09:05:07  +  00:10:17=30,709 
51 NEDJanus HellemonsNLDHolland09:05:07  +  00:10:17=30,709 
52 BELEmile Masson jr.BELBelgium09:05:14  +  00:10:24=30,702 
53 BELFrançois NeuvilleBELBelgium09:05:14  +  00:10:24=30,702 
54 FRACamille LeroyFRABluets09:05:47  +  00:10:57=30,672 
55 ITAOreste BernardoniFRABluets09:14:45  +  00:19:55=30,176 


Todays birthdays.

1924  Siro Bianchi
1930  Renzo Accordi
1933  Manfred Donike
1952  Cristóbal Pérez
1958  Rafaël Tolosa
1960  Hubert Seiz
1964  Johan Bruyneel
1969  Enrico Poitschke